GEFSSE_prec_meanprecacc_126.txt.gz
Total_Precipitation_Accumulation
0.70 0.49 0.65 0.72 0.66 0.65 0.61 0.61 0.59 0.56 0.52 0.49 0.45 0.42 0.41 0.42 0.44 0.47 0.44 0.35 0.31 0.28 0.25 0.31 0.36 0.30 0.30 0.34 0.37 0.41 0.47 0.48 0.40 0.33 0.35 0.39 0.39 0.45 0.59 0.72 0.86 0.91 0.68
0.52 0.45 0.73 0.78 0.74 0.71 0.67 0.63 0.62 0.57 0.51 0.49 0.48 0.44 0.42 0.44 0.46 0.45 0.39 0.35 0.32 0.28 0.28 0.35 0.39 0.33 0.35 0.41 0.50 0.57 0.62 0.56 0.47 0.39 0.48 0.55 0.51 0.54 0.62 0.72 0.99 0.94 0.62
0.46 0.45 0.63 0.81 0.82 0.77 0.71 0.67 0.67 0.61 0.50 0.48 0.50 0.47 0.41 0.38 0.37 0.36 0.36 0.33 0.32 0.31 0.32 0.37 0.41 0.35 0.36 0.45 0.56 0.59 0.60 0.58 0.51 0.53 0.94 1.50 1.09 0.72 0.66 0.77 0.82 0.70 0.57
0.42 0.46 0.60 0.85 0.90 0.85 0.78 0.75 0.84 0.76 0.62 0.56 0.53 0.49 0.43 0.38 0.41 0.47 0.48 0.40 0.37 0.36 0.33 0.37 0.45 0.38 0.38 0.45 0.49 0.48 0.51 0.52 0.56 0.77 1.40 1.84 1.59 1.01 0.89 0.87 0.78 0.70 0.59
0.46 0.50 0.76 0.94 0.85 0.82 0.82 0.92 1.06 0.96 0.85 0.73 0.62 0.55 0.50 0.47 0.47 0.54 0.49 0.48 0.47 0.43 0.42 0.48 0.53 0.46 0.41 0.39 0.39 0.40 0.49 0.66 0.81 0.94 1.31 1.54 1.63 1.24 1.02 0.89 0.83 0.73 0.69
0.51 0.57 0.71 0.85 0.84 0.84 0.88 0.98 1.03 1.05 1.07 0.88 0.73 0.66 0.65 0.63 0.61 0.63 0.63 0.57 0.57 0.55 0.55 0.56 0.53 0.51 0.48 0.46 0.43 0.45 0.58 0.79 0.92 1.08 1.32 1.41 1.43 1.15 0.98 0.88 0.87 0.85 0.82
0.46 0.51 0.56 0.72 0.72 0.76 0.86 0.96 0.96 1.03 1.11 0.97 0.75 0.75 0.78 0.71 0.71 0.73 0.76 0.65 0.63 0.60 0.60 0.62 0.57 0.54 0.53 0.52 0.51 0.53 0.59 0.63 0.77 1.01 1.30 1.50 1.26 1.00 0.96 0.85 0.86 0.91 0.94
0.57 0.51 0.54 0.66 0.70 0.74 0.84 0.96 0.89 0.93 1.04 0.98 0.88 0.83 0.77 0.77 0.80 0.82 0.78 0.73 0.67 0.66 0.65 0.67 0.66 0.60 0.57 0.56 0.56 0.60 0.63 0.57 0.60 0.76 0.87 1.28 1.38 1.17 0.91 0.85 0.89 0.87 0.86
0.93 0.81 0.65 0.58 0.61 0.68 0.82 0.94 0.95 0.95 0.98 0.94 1.00 0.94 0.92 0.89 0.83 0.78 0.76 0.75 0.74 0.73 0.72 0.70 0.65 0.62 0.60 0.59 0.57 0.61 0.66 0.60 0.64 0.70 0.67 1.10 1.33 1.22 0.93 0.83 0.85 0.92 0.88
0.99 0.94 0.81 0.72 0.71 0.73 0.71 0.87 1.07 1.13 1.09 0.99 0.98 0.97 0.97 0.91 0.82 0.76 0.70 0.71 0.76 0.77 0.81 0.81 0.73 0.71 0.67 0.62 0.60 0.65 0.69 0.59 0.55 0.58 0.67 0.90 1.21 1.22 1.07 0.81 0.71 0.69 0.68
0.82 0.82 0.83 0.86 0.89 0.95 0.95 0.93 1.15 1.23 1.16 0.97 0.87 0.90 0.92 0.78 0.80 0.82 0.70 0.82 0.82 0.87 0.91 0.90 0.85 0.82 0.73 0.63 0.66 0.74 0.62 0.50 0.61 0.59 0.66 0.79 1.06 1.13 1.10 0.89 0.64 0.55 0.52
0.67 0.66 0.66 0.69 0.77 0.89 0.97 1.30 1.51 1.30 1.19 0.92 0.91 0.81 0.87 0.94 1.02 0.85 0.79 0.95 0.97 1.01 0.98 0.97 0.99 0.92 0.75 0.56 0.61 0.66 0.50 0.51 0.59 0.51 0.58 0.76 0.99 1.03 0.96 0.84 0.65 0.52 0.48
0.51 0.48 0.48 0.47 0.49 0.58 0.78 1.12 1.41 1.52 1.48 1.40 1.16 0.93 0.94 0.82 0.72 0.67 0.69 0.80 0.87 0.95 0.90 0.93 0.93 0.78 0.69 0.63 0.57 0.49 0.47 0.50 0.62 0.61 0.69 0.79 0.91 0.99 0.94 0.83 0.67 0.56 0.48
0.49 0.48 0.45 0.44 0.41 0.43 0.52 0.69 0.89 1.03 1.12 1.14 0.99 0.88 0.95 0.84 0.74 0.75 0.75 0.75 0.75 0.83 0.92 0.95 0.90 0.76 0.64 0.57 0.53 0.52 0.52 0.51 0.67 0.82 0.90 0.73 0.80 0.91 0.95 0.87 0.74 0.64 0.54
0.53 0.60 0.56 0.47 0.44 0.43 0.47 0.54 0.62 0.77 0.86 0.89 0.91 0.86 0.90 0.90 0.87 0.84 0.77 0.77 0.71 0.77 0.87 0.94 0.89 0.80 0.73 0.66 0.62 0.65 0.67 0.69 0.72 0.76 0.82 0.75 0.82 0.96 1.06 1.02 0.89 0.75 0.64
0.54 0.60 0.65 0.57 0.53 0.49 0.46 0.49 0.54 0.64 0.72 0.76 0.75 0.75 0.85 0.94 0.93 0.90 0.85 0.86 0.83 0.84 0.96 0.94 0.85 0.88 0.85 0.74 0.61 0.61 0.66 0.72 0.76 0.73 0.75 0.84 0.83 0.82 1.00 1.16 1.13 0.92 0.81
0.54 0.57 0.60 0.61 0.61 0.59 0.57 0.56 0.56 0.63 0.73 0.75 0.72 0.67 0.69 0.78 0.83 0.86 0.87 0.87 0.91 0.99 1.04 1.06 0.89 0.89 0.83 0.73 0.66 0.61 0.58 0.62 0.64 0.68 0.65 0.62 0.69 0.75 0.88 1.10 1.21 1.08 0.99
0.47 0.48 0.52 0.54 0.59 0.66 0.68 0.69 0.71 0.71 0.78 0.75 0.74 0.68 0.63 0.68 0.77 0.90 0.90 0.88 0.91 1.03 1.10 1.14 1.04 0.96 0.88 0.83 0.79 0.71 0.64 0.65 0.61 0.66 0.64 0.57 0.67 0.64 0.76 0.82 0.95 1.03 1.05
0.42 0.42 0.44 0.49 0.51 0.63 0.71 0.73 0.82 0.84 0.86 0.83 0.82 0.74 0.71 0.76 0.83 1.00 1.10 1.11 1.11 1.12 1.10 1.05 1.09 1.04 0.98 0.96 0.91 0.86 0.77 0.68 0.67 0.61 0.62 0.65 0.60 0.66 0.74 0.56 0.57 0.64 0.80
0.32 0.35 0.39 0.44 0.46 0.53 0.68 0.80 0.96 1.07 1.04 1.06 1.00 0.89 0.91 1.05 1.18 1.32 1.32 1.39 1.46 1.32 1.26 1.19 1.20 1.15 1.06 1.06 1.00 0.89 0.81 0.70 0.72 0.71 0.71 0.71 0.67 0.63 0.71 0.61 0.53 0.43 0.49
0.22 0.26 0.31 0.36 0.43 0.51 0.59 0.73 0.95 1.23 1.33 1.43 1.39 1.21 1.16 1.28 1.52 1.72 1.69 1.73 1.75 1.61 1.55 1.60 1.79 1.73 1.46 1.23 1.22 1.05 0.87 0.71 0.76 0.76 0.72 0.74 0.73 0.80 0.87 0.78 0.62 0.54 0.43
0.16 0.17 0.23 0.31 0.41 0.50 0.58 0.76 0.91 1.06 1.07 1.24 1.40 1.38 1.30 1.29 1.44 1.57 1.82 1.91 1.83 1.83 1.93 1.97 2.27 2.39 1.97 1.56 1.53 1.61 1.33 1.10 0.81 0.65 0.68 0.68 0.75 0.95 0.93 0.78 0.70 0.58 0.50
0.11 0.12 0.16 0.24 0.35 0.47 0.62 0.86 1.07 1.26 1.35 1.41 1.34 1.43 1.44 1.37 1.41 1.51 1.66 1.82 1.82 1.88 1.95 2.06 2.38 2.82 2.57 2.07 1.83 1.99 1.67 1.46 1.25 0.82 0.64 0.66 0.76 0.94 1.03 0.96 0.89 0.78 0.64
0.09 0.09 0.13 0.22 0.37 0.58 0.79 1.04 1.30 1.50 1.54 1.43 1.48 1.51 1.39 1.33 1.30 1.37 1.51 1.64 1.76 1.78 1.90 1.99 2.10 2.56 2.86 2.55 2.26 1.93 1.59 1.50 1.55 1.30 0.89 0.77 0.82 0.88 0.96 0.94 0.92 0.97 0.89
0.15 0.17 0.24 0.45 0.70 0.95 1.16 1.42 1.71 1.70 1.59 1.50 1.50 1.47 1.42 1.43 1.40 1.39 1.53 1.60 1.61 1.66 1.76 2.08 2.34 2.58 2.76 2.69 2.58 2.41 2.16 1.85 1.46 1.50 1.41 1.10 0.99 0.93 0.93 0.97 0.98 0.98 0.99
0.46 0.60 0.80 1.07 1.26 1.34 1.47 1.62 1.74 1.71 1.72 1.67 1.49 1.39 1.39 1.43 1.49 1.53 1.59 1.59 1.56 1.59 1.69 1.91 2.18 2.39 2.70 2.86 2.75 2.52 2.35 2.17 1.91 1.74 1.50 1.37 1.31 1.10 1.04 1.03 0.99 1.00 1.05

GEFSSE_prec_meanprecacc_132.txt.gz
Total_Precipitation_Accumulation
0.78 0.56 0.74 0.76 0.68 0.67 0.63 0.62 0.61 0.58 0.54 0.50 0.46 0.43 0.42 0.43 0.45 0.47 0.44 0.36 0.31 0.28 0.25 0.31 0.36 0.31 0.31 0.35 0.38 0.42 0.48 0.49 0.42 0.35 0.39 0.43 0.42 0.47 0.60 0.73 0.88 0.92 0.70
0.57 0.51 0.83 0.85 0.78 0.74 0.68 0.64 0.63 0.59 0.52 0.49 0.48 0.45 0.43 0.44 0.46 0.45 0.39 0.35 0.33 0.29 0.28 0.36 0.39 0.34 0.35 0.42 0.51 0.57 0.62 0.58 0.49 0.41 0.53 0.59 0.55 0.57 0.64 0.74 1.02 0.96 0.65
0.49 0.48 0.69 0.89 0.87 0.80 0.73 0.68 0.69 0.62 0.51 0.48 0.50 0.47 0.41 0.38 0.37 0.36 0.36 0.33 0.33 0.32 0.32 0.37 0.41 0.35 0.36 0.46 0.57 0.59 0.61 0.59 0.52 0.56 0.98 1.53 1.13 0.76 0.69 0.80 0.84 0.73 0.60
0.43 0.48 0.62 0.90 0.94 0.87 0.80 0.76 0.85 0.77 0.63 0.56 0.53 0.50 0.43 0.39 0.41 0.48 0.48 0.40 0.37 0.36 0.34 0.38 0.45 0.38 0.38 0.45 0.50 0.49 0.52 0.53 0.58 0.80 1.42 1.87 1.61 1.07 0.94 0.90 0.81 0.73 0.63
0.47 0.52 0.79 0.98 0.87 0.84 0.84 0.93 1.06 0.97 0.86 0.74 0.63 0.55 0.51 0.47 0.48 0.54 0.49 0.48 0.47 0.44 0.42 0.48 0.53 0.46 0.41 0.39 0.40 0.40 0.49 0.67 0.84 0.97 1.34 1.57 1.66 1.31 1.08 0.93 0.86 0.77 0.75
0.53 0.59 0.75 0.88 0.85 0.85 0.89 0.98 1.03 1.06 1.07 0.88 0.73 0.66 0.65 0.63 0.62 0.64 0.63 0.57 0.57 0.55 0.55 0.56 0.54 0.52 0.48 0.46 0.43 0.45 0.59 0.80 0.95 1.10 1.36 1.45 1.45 1.22 1.03 0.91 0.91 0.91 0.89
0.48 0.54 0.60 0.77 0.74 0.77 0.86 0.96 0.96 1.03 1.11 0.97 0.76 0.75 0.78 0.71 0.71 0.73 0.76 0.65 0.63 0.61 0.61 0.63 0.57 0.55 0.53 0.53 0.51 0.54 0.60 0.64 0.79 1.05 1.35 1.54 1.30 1.08 1.01 0.88 0.88 0.95 0.99
0.58 0.53 0.56 0.68 0.71 0.74 0.84 0.97 0.90 0.94 1.05 0.99 0.89 0.83 0.77 0.77 0.80 0.82 0.78 0.73 0.67 0.66 0.65 0.67 0.66 0.60 0.57 0.56 0.56 0.60 0.63 0.58 0.61 0.79 0.92 1.34 1.45 1.25 0.98 0.89 0.92 0.89 0.90
0.94 0.83 0.66 0.59 0.61 0.69 0.83 0.96 0.97 0.97 0.98 0.95 1.00 0.94 0.92 0.89 0.83 0.78 0.76 0.75 0.74 0.73 0.73 0.70 0.66 0.63 0.60 0.59 0.58 0.61 0.67 0.61 0.65 0.72 0.71 1.15 1.41 1.30 0.99 0.87 0.88 0.94 0.92
1.01 0.95 0.83 0.73 0.71 0.74 0.71 0.87 1.07 1.14 1.09 0.99 0.98 0.97 0.97 0.91 0.82 0.77 0.71 0.72 0.76 0.77 0.81 0.82 0.73 0.71 0.68 0.63 0.60 0.66 0.70 0.61 0.57 0.60 0.69 0.94 1.29 1.31 1.15 0.86 0.74 0.71 0.71
0.85 0.85 0.85 0.87 0.89 0.95 0.95 0.93 1.15 1.23 1.16 0.97 0.87 0.91 0.92 0.78 0.80 0.82 0.71 0.82 0.82 0.87 0.91 0.90 0.85 0.83 0.73 0.64 0.68 0.77 0.64 0.52 0.63 0.61 0.68 0.83 1.12 1.22 1.18 0.94 0.67 0.57 0.54
0.69 0.67 0.67 0.70 0.78 0.89 0.97 1.30 1.51 1.30 1.19 0.92 0.91 0.81 0.87 0.94 1.02 0.85 0.79 0.95 0.97 1.01 0.99 0.97 1.00 0.93 0.75 0.57 0.62 0.67 0.52 0.53 0.61 0.53 0.61 0.80 1.05 1.10 1.04 0.89 0.68 0.55 0.51
0.52 0.50 0.49 0.48 0.50 0.58 0.78 1.12 1.41 1.52 1.48 1.40 1.16 0.93 0.94 0.82 0.72 0.67 0.69 0.80 0.87 0.95 0.90 0.93 0.93 0.79 0.69 0.63 0.58 0.50 0.49 0.53 0.64 0.64 0.73 0.85 0.97 1.05 1.01 0.88 0.72 0.60 0.53
0.50 0.49 0.45 0.45 0.42 0.43 0.52 0.69 0.89 1.03 1.12 1.14 0.99 0.88 0.95 0.84 0.74 0.75 0.75 0.75 0.75 0.83 0.92 0.95 0.90 0.77 0.65 0.58 0.54 0.53 0.54 0.56 0.70 0.86 0.96 0.78 0.86 0.98 1.02 0.93 0.79 0.68 0.60
0.55 0.61 0.57 0.48 0.45 0.44 0.47 0.55 0.62 0.77 0.86 0.89 0.91 0.86 0.90 0.90 0.87 0.84 0.77 0.77 0.71 0.77 0.87 0.94 0.89 0.80 0.73 0.66 0.62 0.66 0.69 0.72 0.76 0.82 0.88 0.80 0.86 1.03 1.15 1.10 0.95 0.78 0.69
0.55 0.62 0.67 0.59 0.54 0.50 0.47 0.50 0.54 0.64 0.72 0.76 0.75 0.75 0.85 0.94 0.93 0.90 0.85 0.86 0.83 0.84 0.96 0.94 0.85 0.88 0.85 0.74 0.62 0.62 0.67 0.75 0.79 0.77 0.80 0.89 0.88 0.87 1.08 1.23 1.20 0.97 0.87
0.55 0.58 0.61 0.63 0.63 0.61 0.59 0.57 0.56 0.63 0.73 0.75 0.72 0.67 0.69 0.78 0.83 0.86 0.87 0.87 0.91 0.99 1.04 1.06 0.90 0.89 0.83 0.73 0.66 0.61 0.59 0.63 0.66 0.71 0.69 0.67 0.73 0.79 0.95 1.18 1.29 1.16 1.06
0.47 0.48 0.53 0.55 0.61 0.68 0.71 0.71 0.71 0.71 0.78 0.75 0.74 0.68 0.63 0.68 0.77 0.90 0.90 0.88 0.91 1.03 1.10 1.14 1.04 0.96 0.88 0.83 0.80 0.71 0.65 0.66 0.64 0.70 0.71 0.61 0.70 0.68 0.80 0.88 1.02 1.12 1.13
0.42 0.42 0.45 0.50 0.52 0.64 0.72 0.76 0.83 0.84 0.86 0.83 0.82 0.74 0.71 0.76 0.83 1.00 1.10 1.11 1.11 1.12 1.10 1.05 1.09 1.04 0.98 0.96 0.92 0.88 0.78 0.71 0.71 0.67 0.70 0.70 0.65 0.69 0.78 0.60 0.62 0.70 0.86
0.33 0.35 0.39 0.45 0.48 0.55 0.70 0.82 0.97 1.07 1.04 1.06 1.00 0.89 0.91 1.05 1.18 1.32 1.32 1.39 1.46 1.32 1.26 1.20 1.21 1.15 1.06 1.07 1.02 0.91 0.83 0.72 0.76 0.78 0.77 0.77 0.71 0.68 0.76 0.65 0.56 0.47 0.54
0.23 0.26 0.32 0.36 0.44 0.53 0.61 0.75 0.96 1.23 1.33 1.43 1.39 1.21 1.16 1.28 1.52 1.72 1.69 1.73 1.75 1.61 1.55 1.61 1.79 1.73 1.46 1.24 1.24 1.06 0.89 0.73 0.80 0.81 0.77 0.79 0.78 0.84 0.93 0.84 0.65 0.56 0.45
0.16 0.17 0.23 0.32 0.42 0.51 0.60 0.77 0.94 1.08 1.07 1.24 1.40 1.38 1.30 1.29 1.44 1.57 1.82 1.91 1.83 1.83 1.94 1.97 2.27 2.39 1.97 1.56 1.54 1.61 1.35 1.13 0.84 0.69 0.72 0.73 0.80 0.99 1.01 0.87 0.75 0.61 0.52
0.11 0.13 0.17 0.24 0.35 0.48 0.64 0.87 1.09 1.27 1.35 1.41 1.34 1.43 1.44 1.37 1.41 1.51 1.66 1.82 1.82 1.88 1.96 2.07 2.39 2.82 2.57 2.07 1.83 2.00 1.68 1.47 1.26 0.86 0.69 0.70 0.81 0.98 1.10 1.05 0.96 0.83 0.68
0.10 0.10 0.13 0.22 0.38 0.59 0.80 1.05 1.31 1.51 1.55 1.43 1.48 1.51 1.39 1.33 1.30 1.37 1.51 1.64 1.76 1.78 1.90 2.00 2.11 2.56 2.87 2.55 2.26 1.93 1.60 1.51 1.56 1.32 0.92 0.81 0.87 0.93 1.01 1.02 1.02 1.06 0.95
0.16 0.18 0.25 0.45 0.70 0.96 1.17 1.43 1.72 1.72 1.60 1.51 1.50 1.47 1.42 1.43 1.40 1.39 1.53 1.60 1.61 1.66 1.76 2.09 2.34 2.59 2.77 2.70 2.59 2.42 2.17 1.85 1.47 1.52 1.43 1.15 1.04 0.96 0.99 1.04 1.07 1.08 1.07
0.47 0.61 0.80 1.07 1.27 1.35 1.48 1.64 1.76 1.73 1.74 1.67 1.49 1.39 1.39 1.43 1.49 1.53 1.59 1.59 1.56 1.59 1.69 1.91 2.18 2.39 2.71 2.87 2.75 2.53 2.36 2.19 1.93 1.75 1.52 1.41 1.36 1.14 1.08 1.08 1.04 1.07 1.12

GEFSSE_prec_meanprecacc_138.txt.gz
Total_Precipitation_Accumulation
0.82 0.65 0.89 0.87 0.77 0.74 0.69 0.69 0.67 0.62 0.58 0.55 0.49 0.45 0.44 0.45 0.47 0.49 0.46 0.38 0.33 0.30 0.27 0.33 0.38 0.32 0.32 0.36 0.39 0.43 0.49 0.51 0.44 0.37 0.41 0.44 0.42 0.48 0.61 0.75 0.89 0.92 0.71
0.61 0.59 0.98 0.96 0.90 0.82 0.75 0.71 0.68 0.62 0.55 0.52 0.50 0.46 0.45 0.47 0.49 0.47 0.41 0.37 0.34 0.31 0.30 0.39 0.41 0.35 0.36 0.43 0.52 0.60 0.64 0.59 0.50 0.42 0.54 0.60 0.56 0.58 0.65 0.75 1.03 0.97 0.66
0.53 0.55 0.78 1.02 1.03 0.91 0.78 0.73 0.72 0.64 0.52 0.49 0.51 0.49 0.43 0.39 0.38 0.38 0.38 0.35 0.34 0.33 0.34 0.40 0.43 0.37 0.37 0.47 0.59 0.61 0.63 0.60 0.53 0.57 0.99 1.53 1.15 0.79 0.70 0.81 0.85 0.73 0.62
0.47 0.53 0.68 1.00 1.03 0.93 0.84 0.79 0.87 0.79 0.64 0.58 0.55 0.50 0.44 0.39 0.42 0.49 0.49 0.41 0.38 0.37 0.35 0.39 0.46 0.40 0.39 0.46 0.51 0.50 0.53 0.55 0.59 0.82 1.43 1.88 1.62 1.12 0.98 0.93 0.83 0.74 0.66
0.51 0.56 0.87 1.05 0.93 0.88 0.87 0.96 1.08 0.98 0.87 0.75 0.63 0.55 0.51 0.48 0.48 0.55 0.50 0.49 0.48 0.45 0.43 0.49 0.54 0.47 0.41 0.40 0.41 0.41 0.50 0.70 0.88 0.99 1.35 1.57 1.66 1.35 1.14 0.97 0.89 0.81 0.79
0.56 0.63 0.82 0.94 0.90 0.88 0.91 1.00 1.05 1.07 1.08 0.88 0.73 0.67 0.66 0.63 0.62 0.64 0.64 0.58 0.58 0.55 0.56 0.56 0.55 0.53 0.48 0.46 0.44 0.46 0.60 0.81 0.98 1.13 1.38 1.46 1.46 1.25 1.06 0.94 0.94 0.98 0.96
0.51 0.58 0.66 0.83 0.80 0.81 0.89 0.99 0.98 1.05 1.12 0.98 0.76 0.76 0.78 0.71 0.71 0.74 0.76 0.66 0.64 0.61 0.61 0.63 0.58 0.56 0.54 0.53 0.52 0.54 0.61 0.65 0.80 1.06 1.36 1.55 1.32 1.12 1.04 0.91 0.92 1.02 1.12
0.62 0.58 0.61 0.74 0.78 0.79 0.88 1.02 0.94 0.97 1.06 1.00 0.89 0.83 0.77 0.77 0.81 0.82 0.78 0.73 0.67 0.67 0.67 0.68 0.67 0.61 0.58 0.57 0.57 0.61 0.64 0.60 0.63 0.80 0.94 1.35 1.49 1.31 1.02 0.91 0.95 0.95 1.03
0.98 0.87 0.69 0.63 0.66 0.72 0.86 1.00 1.00 0.98 0.99 0.95 1.00 0.95 0.92 0.89 0.84 0.78 0.76 0.75 0.74 0.74 0.74 0.71 0.67 0.64 0.62 0.61 0.59 0.63 0.69 0.64 0.67 0.72 0.72 1.16 1.46 1.36 1.04 0.90 0.91 0.99 1.01
1.03 0.98 0.85 0.75 0.74 0.76 0.73 0.89 1.08 1.14 1.09 0.99 0.98 0.97 0.97 0.91 0.82 0.77 0.71 0.72 0.76 0.77 0.81 0.82 0.74 0.72 0.69 0.64 0.62 0.68 0.72 0.62 0.58 0.60 0.69 0.95 1.34 1.38 1.22 0.91 0.78 0.75 0.77
0.86 0.87 0.86 0.88 0.90 0.96 0.96 0.94 1.16 1.24 1.16 0.97 0.87 0.91 0.92 0.78 0.80 0.82 0.71 0.83 0.82 0.87 0.92 0.91 0.86 0.84 0.74 0.65 0.69 0.78 0.66 0.52 0.64 0.61 0.68 0.84 1.17 1.30 1.26 0.99 0.72 0.62 0.60
0.70 0.69 0.68 0.71 0.79 0.90 0.98 1.31 1.52 1.31 1.20 0.93 0.92 0.81 0.87 0.94 1.02 0.85 0.79 0.95 0.98 1.02 0.99 0.98 1.01 0.94 0.76 0.58 0.63 0.68 0.54 0.54 0.62 0.54 0.61 0.83 1.08 1.16 1.12 0.94 0.74 0.60 0.57
0.53 0.50 0.50 0.48 0.50 0.59 0.79 1.13 1.42 1.53 1.49 1.41 1.16 0.93 0.94 0.82 0.72 0.67 0.69 0.80 0.87 0.95 0.90 0.93 0.94 0.79 0.70 0.64 0.58 0.51 0.50 0.54 0.64 0.64 0.74 0.88 1.01 1.10 1.08 0.95 0.78 0.66 0.58
0.51 0.50 0.46 0.45 0.42 0.44 0.53 0.70 0.90 1.04 1.13 1.15 0.99 0.88 0.95 0.84 0.74 0.75 0.75 0.75 0.75 0.83 0.92 0.95 0.90 0.77 0.65 0.58 0.54 0.54 0.55 0.57 0.71 0.88 0.98 0.81 0.89 1.02 1.08 1.00 0.85 0.75 0.68
0.55 0.61 0.58 0.49 0.45 0.44 0.47 0.55 0.63 0.78 0.87 0.89 0.92 0.86 0.90 0.90 0.87 0.84 0.77 0.77 0.71 0.77 0.87 0.94 0.89 0.80 0.73 0.66 0.63 0.67 0.70 0.74 0.78 0.83 0.89 0.82 0.89 1.07 1.21 1.18 1.02 0.85 0.78
0.55 0.62 0.67 0.59 0.55 0.50 0.47 0.51 0.55 0.65 0.73 0.77 0.76 0.75 0.85 0.94 0.93 0.90 0.85 0.86 0.83 0.84 0.96 0.94 0.85 0.88 0.85 0.74 0.62 0.63 0.69 0.76 0.81 0.78 0.81 0.90 0.90 0.91 1.14 1.31 1.29 1.06 0.98
0.55 0.58 0.61 0.63 0.63 0.62 0.60 0.58 0.57 0.64 0.74 0.76 0.73 0.68 0.69 0.78 0.83 0.86 0.87 0.87 0.91 0.99 1.04 1.06 0.90 0.89 0.83 0.73 0.67 0.62 0.61 0.64 0.68 0.72 0.70 0.67 0.73 0.82 1.00 1.26 1.41 1.27 1.18
0.47 0.49 0.53 0.55 0.61 0.68 0.71 0.72 0.73 0.73 0.80 0.77 0.76 0.69 0.63 0.68 0.77 0.90 0.90 0.88 0.91 1.03 1.10 1.14 1.04 0.96 0.88 0.83 0.80 0.72 0.66 0.67 0.65 0.72 0.72 0.62 0.71 0.69 0.83 0.93 1.10 1.21 1.22
0.42 0.43 0.45 0.50 0.52 0.64 0.73 0.76 0.84 0.86 0.87 0.85 0.84 0.74 0.71 0.76 0.83 1.00 1.10 1.11 1.11 1.12 1.10 1.05 1.09 1.04 0.98 0.96 0.92 0.88 0.79 0.71 0.72 0.69 0.71 0.71 0.66 0.70 0.79 0.63 0.67 0.75 0.93
0.34 0.36 0.39 0.45 0.48 0.55 0.70 0.82 0.97 1.09 1.05 1.07 1.01 0.89 0.91 1.05 1.18 1.32 1.32 1.39 1.46 1.33 1.27 1.20 1.21 1.15 1.06 1.07 1.02 0.91 0.83 0.72 0.76 0.81 0.80 0.79 0.73 0.69 0.77 0.66 0.57 0.49 0.59
0.23 0.26 0.32 0.36 0.44 0.53 0.61 0.75 0.96 1.24 1.35 1.44 1.40 1.22 1.16 1.28 1.52 1.72 1.69 1.73 1.75 1.61 1.56 1.61 1.80 1.73 1.46 1.24 1.24 1.06 0.89 0.73 0.81 0.83 0.80 0.82 0.80 0.86 0.95 0.85 0.66 0.57 0.48
0.16 0.18 0.24 0.32 0.42 0.51 0.60 0.77 0.94 1.08 1.08 1.26 1.41 1.39 1.30 1.29 1.44 1.57 1.82 1.91 1.83 1.84 1.95 1.98 2.27 2.39 1.97 1.56 1.54 1.62 1.35 1.13 0.85 0.70 0.74 0.75 0.82 1.01 1.03 0.88 0.77 0.63 0.55
0.12 0.13 0.17 0.24 0.35 0.48 0.64 0.87 1.09 1.27 1.36 1.42 1.35 1.43 1.44 1.37 1.41 1.51 1.66 1.82 1.82 1.88 1.97 2.08 2.40 2.82 2.57 2.07 1.84 2.00 1.68 1.47 1.27 0.87 0.70 0.72 0.82 0.99 1.11 1.06 0.98 0.86 0.71
0.10 0.10 0.14 0.23 0.38 0.59 0.80 1.06 1.31 1.51 1.55 1.44 1.48 1.51 1.39 1.33 1.30 1.37 1.51 1.64 1.76 1.78 1.91 2.00 2.11 2.56 2.87 2.55 2.26 1.93 1.60 1.51 1.56 1.33 0.93 0.82 0.89 0.94 1.02 1.03 1.03 1.08 0.98
0.17 0.18 0.25 0.45 0.70 0.96 1.17 1.43 1.72 1.72 1.61 1.51 1.51 1.47 1.42 1.43 1.40 1.39 1.53 1.60 1.61 1.66 1.76 2.09 2.34 2.59 2.77 2.70 2.59 2.42 2.17 1.85 1.47 1.52 1.44 1.15 1.05 0.98 1.01 1.06 1.09 1.11 1.12
0.47 0.61 0.81 1.08 1.27 1.36 1.48 1.64 1.76 1.73 1.74 1.68 1.49 1.40 1.39 1.43 1.49 1.53 1.59 1.59 1.56 1.59 1.69 1.91 2.18 2.39 2.71 2.87 2.75 2.53 2.36 2.19 1.93 1.76 1.53 1.42 1.37 1.15 1.09 1.10 1.06 1.11 1.17

GEFSSE_prec_meanprecacc_144.txt.gz
Total_Precipitation_Accumulation
0.89 0.73 1.02 1.01 0.92 0.90 0.82 0.83 0.82 0.73 0.65 0.61 0.57 0.53 0.50 0.49 0.51 0.54 0.51 0.42 0.37 0.35 0.32 0.37 0.43 0.36 0.36 0.39 0.41 0.45 0.51 0.52 0.46 0.38 0.41 0.45 0.43 0.48 0.62 0.75 0.91 0.95 0.74
0.67 0.71 1.14 1.12 1.06 0.98 0.89 0.87 0.84 0.71 0.61 0.56 0.55 0.51 0.48 0.49 0.52 0.50 0.45 0.40 0.37 0.34 0.34 0.42 0.45 0.40 0.41 0.46 0.55 0.62 0.67 0.61 0.52 0.44 0.56 0.61 0.56 0.59 0.65 0.76 1.04 0.99 0.68
0.58 0.64 0.91 1.22 1.22 1.06 0.90 0.84 0.85 0.72 0.56 0.52 0.54 0.51 0.44 0.42 0.41 0.41 0.41 0.38 0.37 0.35 0.35 0.41 0.46 0.39 0.40 0.49 0.61 0.64 0.66 0.63 0.55 0.59 1.01 1.55 1.16 0.80 0.71 0.82 0.87 0.76 0.64
0.53 0.60 0.78 1.15 1.19 1.06 0.95 0.88 0.93 0.82 0.66 0.60 0.58 0.52 0.46 0.41 0.44 0.52 0.53 0.44 0.40 0.38 0.36 0.40 0.50 0.42 0.40 0.47 0.53 0.52 0.56 0.58 0.62 0.83 1.44 1.89 1.64 1.12 1.00 0.94 0.85 0.78 0.69
0.57 0.65 0.98 1.19 1.06 0.98 0.96 1.02 1.13 1.01 0.89 0.77 0.65 0.56 0.52 0.49 0.49 0.57 0.53 0.51 0.49 0.46 0.45 0.51 0.56 0.49 0.43 0.41 0.42 0.42 0.51 0.71 0.89 1.00 1.36 1.58 1.68 1.36 1.15 0.99 0.92 0.86 0.85
0.59 0.69 0.92 1.04 0.99 0.96 0.98 1.04 1.09 1.10 1.10 0.92 0.76 0.69 0.67 0.64 0.62 0.65 0.65 0.59 0.59 0.57 0.58 0.58 0.56 0.54 0.50 0.48 0.45 0.47 0.61 0.82 0.99 1.14 1.39 1.47 1.47 1.26 1.08 0.97 0.99 1.06 1.08
0.53 0.62 0.74 0.93 0.87 0.87 0.93 1.03 1.02 1.07 1.15 1.01 0.79 0.77 0.80 0.72 0.72 0.74 0.76 0.67 0.65 0.62 0.63 0.65 0.59 0.57 0.55 0.54 0.52 0.55 0.62 0.66 0.81 1.07 1.38 1.56 1.33 1.13 1.06 0.94 0.96 1.13 1.26
0.64 0.60 0.66 0.80 0.86 0.86 0.95 1.06 0.98 0.99 1.08 1.02 0.91 0.84 0.78 0.77 0.81 0.82 0.78 0.73 0.68 0.67 0.68 0.69 0.68 0.62 0.58 0.57 0.57 0.62 0.65 0.61 0.63 0.81 0.96 1.36 1.51 1.34 1.04 0.94 0.99 1.05 1.19
1.01 0.90 0.73 0.68 0.72 0.79 0.94 1.06 1.05 1.01 1.01 0.97 1.01 0.95 0.92 0.89 0.84 0.78 0.76 0.76 0.74 0.74 0.74 0.72 0.68 0.65 0.62 0.61 0.60 0.63 0.70 0.65 0.68 0.73 0.73 1.18 1.49 1.40 1.07 0.94 0.95 1.12 1.20
1.05 1.01 0.88 0.78 0.77 0.79 0.75 0.91 1.10 1.16 1.11 1.01 0.99 0.98 0.98 0.91 0.82 0.77 0.71 0.72 0.77 0.78 0.83 0.83 0.75 0.73 0.69 0.65 0.62 0.68 0.72 0.63 0.58 0.61 0.70 0.97 1.36 1.44 1.27 0.94 0.82 0.83 0.89
0.87 0.88 0.87 0.89 0.91 0.97 0.97 0.95 1.17 1.25 1.18 0.99 0.89 0.92 0.93 0.78 0.81 0.82 0.71 0.83 0.83 0.88 0.92 0.92 0.87 0.85 0.75 0.65 0.70 0.79 0.66 0.53 0.64 0.62 0.69 0.86 1.19 1.35 1.31 1.03 0.77 0.68 0.71
0.71 0.69 0.68 0.71 0.79 0.90 0.99 1.32 1.53 1.33 1.21 0.94 0.94 0.83 0.88 0.95 1.02 0.85 0.79 0.95 0.98 1.02 0.99 0.98 1.01 0.94 0.76 0.58 0.63 0.69 0.54 0.54 0.62 0.54 0.62 0.85 1.12 1.20 1.17 1.00 0.78 0.65 0.66
0.54 0.51 0.50 0.48 0.50 0.59 0.79 1.14 1.43 1.55 1.52 1.43 1.19 0.96 0.95 0.83 0.72 0.67 0.69 0.80 0.87 0.95 0.90 0.93 0.94 0.79 0.70 0.64 0.58 0.51 0.50 0.54 0.65 0.65 0.76 0.92 1.05 1.14 1.13 1.00 0.82 0.72 0.66
0.51 0.50 0.46 0.45 0.42 0.44 0.53 0.70 0.90 1.04 1.14 1.16 1.01 0.90 0.97 0.85 0.74 0.75 0.75 0.75 0.75 0.83 0.92 0.95 0.90 0.77 0.65 0.58 0.55 0.54 0.55 0.58 0.72 0.89 1.00 0.84 0.93 1.06 1.13 1.07 0.91 0.81 0.76
0.55 0.61 0.58 0.49 0.45 0.44 0.47 0.55 0.63 0.78 0.87 0.90 0.92 0.88 0.91 0.91 0.87 0.84 0.77 0.77 0.71 0.77 0.87 0.94 0.89 0.80 0.73 0.67 0.63 0.68 0.71 0.75 0.79 0.84 0.90 0.84 0.92 1.11 1.25 1.25 1.08 0.91 0.86
0.55 0.62 0.67 0.59 0.55 0.50 0.47 0.51 0.55 0.65 0.73 0.77 0.76 0.76 0.86 0.94 0.94 0.90 0.85 0.86 0.83 0.84 0.96 0.94 0.85 0.88 0.86 0.75 0.64 0.64 0.70 0.77 0.83 0.79 0.82 0.91 0.91 0.93 1.17 1.37 1.37 1.13 1.08
0.56 0.59 0.61 0.63 0.63 0.62 0.60 0.58 0.57 0.64 0.74 0.76 0.73 0.68 0.70 0.78 0.83 0.86 0.87 0.87 0.91 0.99 1.04 1.06 0.90 0.89 0.83 0.74 0.68 0.64 0.62 0.65 0.69 0.74 0.72 0.69 0.75 0.83 1.01 1.31 1.49 1.35 1.27
0.48 0.49 0.53 0.55 0.61 0.68 0.71 0.72 0.73 0.73 0.80 0.77 0.76 0.69 0.64 0.69 0.77 0.90 0.90 0.88 0.91 1.03 1.11 1.14 1.04 0.97 0.89 0.84 0.81 0.74 0.67 0.68 0.66 0.74 0.73 0.64 0.74 0.71 0.85 0.96 1.14 1.27 1.29
0.43 0.43 0.45 0.50 0.52 0.64 0.73 0.76 0.84 0.86 0.87 0.85 0.84 0.74 0.71 0.76 0.83 1.00 1.10 1.11 1.11 1.12 1.10 1.06 1.10 1.06 1.00 0.98 0.93 0.89 0.80 0.72 0.74 0.71 0.73 0.73 0.68 0.72 0.81 0.64 0.69 0.78 0.98
0.34 0.36 0.40 0.45 0.48 0.55 0.70 0.82 0.97 1.09 1.05 1.07 1.01 0.89 0.91 1.05 1.18 1.32 1.32 1.39 1.46 1.33 1.27 1.21 1.22 1.16 1.07 1.09 1.03 0.92 0.83 0.73 0.78 0.83 0.82 0.80 0.75 0.70 0.79 0.68 0.60 0.52 0.62
0.23 0.26 0.32 0.36 0.44 0.53 0.61 0.75 0.96 1.24 1.35 1.44 1.40 1.22 1.16 1.28 1.52 1.72 1.69 1.73 1.75 1.61 1.56 1.62 1.80 1.74 1.47 1.24 1.25 1.07 0.89 0.74 0.82 0.86 0.83 0.85 0.83 0.90 0.97 0.87 0.69 0.62 0.52
0.16 0.18 0.24 0.32 0.42 0.51 0.60 0.77 0.94 1.08 1.08 1.26 1.41 1.39 1.30 1.29 1.44 1.57 1.82 1.91 1.83 1.84 1.95 1.98 2.28 2.41 1.98 1.57 1.55 1.62 1.35 1.15 0.86 0.73 0.77 0.78 0.86 1.05 1.07 0.90 0.78 0.67 0.59
0.12 0.13 0.17 0.24 0.35 0.48 0.64 0.87 1.09 1.27 1.36 1.42 1.35 1.43 1.44 1.37 1.41 1.51 1.66 1.82 1.82 1.89 1.97 2.08 2.40 2.83 2.58 2.07 1.84 2.00 1.69 1.48 1.29 0.90 0.72 0.74 0.85 1.03 1.15 1.09 1.01 0.89 0.74
0.11 0.10 0.14 0.23 0.38 0.59 0.80 1.06 1.31 1.51 1.55 1.44 1.48 1.51 1.39 1.34 1.30 1.37 1.51 1.64 1.76 1.78 1.91 2.01 2.12 2.57 2.87 2.56 2.26 1.93 1.60 1.52 1.57 1.35 0.95 0.85 0.91 0.96 1.04 1.05 1.05 1.12 1.01
0.17 0.18 0.25 0.45 0.70 0.96 1.17 1.43 1.72 1.72 1.61 1.51 1.51 1.48 1.42 1.43 1.40 1.39 1.53 1.60 1.61 1.66 1.76 2.09 2.35 2.60 2.77 2.70 2.59 2.42 2.18 1.86 1.47 1.53 1.47 1.18 1.07 0.99 1.02 1.07 1.11 1.14 1.14
0.47 0.61 0.81 1.08 1.27 1.36 1.49 1.64 1.76 1.73 1.74 1.68 1.50 1.40 1.39 1.44 1.49 1.53 1.59 1.59 1.56 1.59 1.69 1.91 2.19 2.40 2.71 2.87 2.75 2.53 2.37 2.20 1.94 1.77 1.56 1.45 1.39 1.16 1.10 1.11 1.07 1.13 1.21

GEFSSE_prec_meanprecacc_150.txt.gz
Total_Precipitation_Accumulation
1.05 0.85 1.10 1.08 1.00 1.00 0.94 0.96 0.90 0.82 0.74 0.69 0.64 0.58 0.55 0.53 0.54 0.56 0.54 0.45 0.40 0.39 0.37 0.42 0.46 0.40 0.40 0.41 0.44 0.47 0.52 0.53 0.46 0.39 0.42 0.45 0.43 0.49 0.63 0.77 0.95 1.01 0.79
0.80 0.81 1.21 1.20 1.16 1.07 0.99 0.98 0.94 0.78 0.68 0.63 0.59 0.54 0.51 0.51 0.54 0.52 0.47 0.42 0.39 0.37 0.37 0.45 0.48 0.43 0.45 0.50 0.58 0.64 0.68 0.62 0.52 0.46 0.59 0.65 0.58 0.60 0.66 0.78 1.06 1.01 0.72
0.70 0.75 0.98 1.33 1.32 1.14 1.00 0.98 0.98 0.81 0.63 0.57 0.57 0.54 0.47 0.44 0.43 0.42 0.43 0.39 0.39 0.38 0.37 0.43 0.48 0.42 0.44 0.54 0.65 0.67 0.68 0.64 0.56 0.63 1.08 1.63 1.21 0.82 0.72 0.83 0.89 0.78 0.66
0.65 0.72 0.84 1.24 1.27 1.14 1.07 1.00 1.05 0.90 0.70 0.62 0.60 0.54 0.47 0.42 0.45 0.53 0.54 0.45 0.41 0.39 0.36 0.41 0.50 0.43 0.42 0.50 0.56 0.55 0.58 0.59 0.64 0.90 1.51 1.95 1.69 1.17 1.02 0.95 0.86 0.79 0.71
0.65 0.73 1.04 1.30 1.15 1.04 1.03 1.08 1.19 1.06 0.92 0.79 0.67 0.57 0.53 0.49 0.50 0.58 0.53 0.51 0.50 0.46 0.45 0.51 0.56 0.50 0.44 0.42 0.44 0.45 0.54 0.73 0.93 1.06 1.41 1.64 1.74 1.40 1.16 1.01 0.94 0.89 0.89
0.65 0.73 0.94 1.10 1.06 1.02 1.03 1.07 1.11 1.12 1.12 0.94 0.77 0.69 0.67 0.64 0.63 0.65 0.65 0.59 0.59 0.57 0.58 0.59 0.57 0.55 0.51 0.49 0.46 0.48 0.62 0.84 1.03 1.18 1.44 1.54 1.53 1.30 1.10 0.99 1.02 1.12 1.14
0.56 0.64 0.75 0.94 0.90 0.92 0.97 1.04 1.03 1.08 1.16 1.03 0.80 0.78 0.80 0.72 0.72 0.74 0.77 0.67 0.65 0.62 0.64 0.65 0.60 0.58 0.55 0.54 0.53 0.56 0.63 0.68 0.83 1.10 1.43 1.64 1.37 1.15 1.09 0.96 0.99 1.23 1.33
0.66 0.62 0.67 0.82 0.88 0.90 0.97 1.07 0.98 1.00 1.09 1.04 0.92 0.85 0.79 0.78 0.81 0.82 0.78 0.73 0.68 0.68 0.68 0.69 0.69 0.62 0.59 0.58 0.58 0.62 0.66 0.63 0.65 0.83 1.00 1.42 1.55 1.37 1.07 0.96 1.02 1.14 1.27
1.03 0.93 0.77 0.70 0.74 0.80 0.96 1.10 1.07 1.03 1.02 0.98 1.02 0.97 0.93 0.90 0.84 0.78 0.77 0.76 0.74 0.75 0.75 0.72 0.68 0.65 0.62 0.61 0.60 0.63 0.70 0.67 0.70 0.75 0.78 1.22 1.52 1.43 1.09 0.95 0.97 1.21 1.30
1.06 1.03 0.89 0.80 0.78 0.80 0.76 0.93 1.13 1.18 1.12 1.02 1.00 0.99 0.98 0.92 0.83 0.77 0.71 0.72 0.77 0.78 0.83 0.83 0.76 0.73 0.69 0.65 0.62 0.68 0.73 0.64 0.60 0.62 0.74 0.99 1.39 1.46 1.29 0.96 0.83 0.91 1.01
0.88 0.89 0.88 0.89 0.92 0.97 0.97 0.95 1.17 1.26 1.18 0.99 0.89 0.93 0.93 0.79 0.81 0.82 0.71 0.83 0.83 0.88 0.92 0.92 0.87 0.85 0.75 0.65 0.70 0.79 0.66 0.54 0.65 0.63 0.71 0.88 1.21 1.37 1.34 1.06 0.80 0.76 0.82
0.72 0.70 0.68 0.71 0.79 0.91 0.99 1.32 1.53 1.33 1.21 0.95 0.94 0.83 0.89 0.96 1.03 0.86 0.79 0.95 0.98 1.02 0.99 0.98 1.01 0.94 0.77 0.59 0.64 0.69 0.55 0.56 0.64 0.56 0.64 0.88 1.13 1.21 1.19 1.04 0.85 0.76 0.78
0.55 0.51 0.50 0.48 0.50 0.59 0.79 1.14 1.43 1.55 1.52 1.43 1.19 0.96 0.97 0.85 0.74 0.68 0.70 0.80 0.87 0.95 0.91 0.94 0.94 0.79 0.70 0.65 0.59 0.52 0.52 0.56 0.66 0.67 0.79 0.95 1.08 1.16 1.15 1.02 0.87 0.79 0.78
0.51 0.50 0.46 0.45 0.42 0.44 0.53 0.70 0.90 1.04 1.14 1.16 1.01 0.91 0.98 0.87 0.76 0.76 0.76 0.75 0.75 0.83 0.92 0.96 0.91 0.78 0.66 0.59 0.56 0.56 0.57 0.58 0.72 0.90 1.02 0.86 0.95 1.09 1.16 1.09 0.95 0.86 0.84
0.55 0.61 0.58 0.49 0.45 0.44 0.47 0.55 0.63 0.78 0.87 0.90 0.92 0.88 0.91 0.92 0.89 0.86 0.78 0.77 0.71 0.77 0.87 0.94 0.89 0.81 0.74 0.68 0.64 0.68 0.71 0.76 0.80 0.85 0.92 0.86 0.93 1.13 1.29 1.29 1.12 0.95 0.92
0.55 0.62 0.67 0.59 0.55 0.50 0.47 0.51 0.55 0.65 0.73 0.77 0.76 0.76 0.86 0.94 0.94 0.90 0.85 0.86 0.83 0.84 0.96 0.94 0.86 0.89 0.87 0.77 0.66 0.65 0.71 0.78 0.84 0.80 0.84 0.93 0.93 0.95 1.21 1.41 1.42 1.18 1.13
0.56 0.59 0.61 0.63 0.63 0.62 0.60 0.58 0.57 0.64 0.74 0.76 0.73 0.68 0.70 0.78 0.84 0.87 0.87 0.87 0.91 0.99 1.04 1.06 0.90 0.90 0.84 0.75 0.70 0.65 0.63 0.66 0.70 0.75 0.73 0.72 0.80 0.86 1.04 1.35 1.54 1.41 1.32
0.48 0.49 0.53 0.55 0.61 0.68 0.71 0.72 0.73 0.73 0.80 0.77 0.76 0.69 0.64 0.69 0.77 0.90 0.91 0.88 0.91 1.03 1.11 1.14 1.05 0.99 0.91 0.86 0.83 0.76 0.69 0.70 0.68 0.75 0.75 0.67 0.79 0.75 0.87 0.99 1.17 1.31 1.35
0.43 0.43 0.45 0.50 0.52 0.64 0.73 0.76 0.84 0.86 0.87 0.85 0.84 0.74 0.71 0.76 0.84 1.01 1.10 1.11 1.11 1.12 1.11 1.06 1.11 1.08 1.04 1.02 0.95 0.91 0.81 0.74 0.76 0.73 0.75 0.77 0.72 0.77 0.84 0.66 0.71 0.80 1.02
0.34 0.36 0.40 0.45 0.48 0.55 0.70 0.82 0.97 1.09 1.05 1.07 1.01 0.89 0.91 1.05 1.19 1.32 1.32 1.40 1.46 1.33 1.28 1.22 1.23 1.18 1.10 1.13 1.05 0.93 0.85 0.74 0.80 0.85 0.85 0.84 0.81 0.76 0.83 0.71 0.63 0.55 0.66
0.23 0.26 0.32 0.36 0.44 0.53 0.61 0.75 0.96 1.24 1.35 1.44 1.40 1.22 1.16 1.28 1.52 1.72 1.69 1.73 1.76 1.62 1.57 1.63 1.82 1.76 1.48 1.25 1.28 1.10 0.91 0.75 0.84 0.88 0.86 0.89 0.90 0.97 1.03 0.91 0.74 0.67 0.56
0.17 0.18 0.24 0.32 0.42 0.51 0.60 0.77 0.94 1.08 1.08 1.26 1.41 1.39 1.30 1.29 1.44 1.57 1.83 1.92 1.84 1.85 1.96 1.99 2.29 2.43 2.00 1.57 1.57 1.66 1.39 1.18 0.90 0.75 0.80 0.83 0.91 1.11 1.13 0.94 0.82 0.71 0.64
0.12 0.13 0.17 0.24 0.35 0.48 0.64 0.87 1.09 1.27 1.36 1.42 1.35 1.43 1.44 1.37 1.41 1.51 1.66 1.82 1.83 1.89 1.98 2.09 2.40 2.85 2.60 2.08 1.84 2.02 1.72 1.52 1.32 0.95 0.76 0.79 0.90 1.09 1.20 1.14 1.05 0.94 0.78
0.11 0.10 0.14 0.23 0.38 0.59 0.80 1.06 1.31 1.51 1.55 1.44 1.48 1.51 1.39 1.34 1.30 1.37 1.51 1.64 1.76 1.78 1.92 2.02 2.12 2.57 2.88 2.57 2.27 1.94 1.61 1.54 1.61 1.40 1.01 0.90 0.95 1.02 1.11 1.09 1.08 1.16 1.06
0.17 0.18 0.25 0.45 0.70 0.96 1.17 1.43 1.72 1.72 1.61 1.51 1.51 1.48 1.42 1.43 1.40 1.39 1.53 1.60 1.61 1.67 1.77 2.10 2.35 2.60 2.78 2.71 2.60 2.43 2.18 1.87 1.50 1.57 1.51 1.24 1.12 1.04 1.06 1.11 1.14 1.17 1.16
0.47 0.61 0.81 1.08 1.27 1.36 1.49 1.64 1.76 1.73 1.74 1.68 1.50 1.40 1.39 1.44 1.49 1.53 1.59 1.59 1.56 1.59 1.70 1.92 2.20 2.41 2.72 2.88 2.76 2.54 2.38 2.21 1.96 1.80 1.60 1.49 1.43 1.20 1.13 1.14 1.10 1.15 1.23

GEFSSE_prec_meanprecacc_156.txt.gz
Total_Precipitation_Accumulation
1.14 0.96 1.26 1.18 1.07 1.04 0.97 1.01 0.95 0.86 0.78 0.73 0.66 0.60 0.56 0.54 0.55 0.57 0.55 0.46 0.41 0.41 0.38 0.44 0.49 0.42 0.41 0.43 0.46 0.50 0.55 0.55 0.49 0.42 0.45 0.48 0.47 0.53 0.66 0.81 0.98 1.02 0.82
0.86 0.93 1.37 1.30 1.21 1.11 1.05 1.05 0.98 0.81 0.70 0.65 0.61 0.55 0.52 0.52 0.55 0.53 0.48 0.43 0.41 0.38 0.38 0.46 0.50 0.46 0.47 0.52 0.60 0.67 0.71 0.64 0.55 0.49 0.62 0.67 0.61 0.63 0.69 0.80 1.08 1.03 0.74
0.77 0.83 1.09 1.42 1.36 1.17 1.05 1.04 1.01 0.84 0.66 0.59 0.58 0.55 0.48 0.44 0.44 0.44 0.44 0.40 0.40 0.38 0.38 0.45 0.50 0.44 0.45 0.55 0.66 0.69 0.70 0.68 0.60 0.66 1.11 1.64 1.23 0.85 0.74 0.85 0.90 0.79 0.68
0.71 0.76 0.89 1.31 1.31 1.17 1.11 1.02 1.09 0.95 0.72 0.64 0.61 0.55 0.48 0.42 0.46 0.53 0.55 0.45 0.42 0.40 0.37 0.41 0.51 0.45 0.44 0.51 0.57 0.56 0.61 0.65 0.69 0.94 1.53 1.96 1.71 1.20 1.04 0.97 0.88 0.80 0.73
0.67 0.76 1.10 1.36 1.18 1.07 1.05 1.10 1.21 1.08 0.93 0.79 0.67 0.58 0.53 0.49 0.50 0.58 0.54 0.52 0.51 0.46 0.45 0.51 0.57 0.52 0.45 0.43 0.44 0.46 0.58 0.80 0.99 1.10 1.42 1.65 1.75 1.44 1.20 1.03 0.96 0.91 0.91
0.67 0.75 0.98 1.14 1.08 1.04 1.06 1.08 1.12 1.13 1.13 0.94 0.77 0.70 0.68 0.64 0.63 0.66 0.66 0.60 0.59 0.57 0.59 0.59 0.58 0.56 0.51 0.49 0.47 0.50 0.66 0.89 1.07 1.19 1.45 1.55 1.54 1.33 1.13 1.01 1.04 1.16 1.17
0.58 0.65 0.77 0.97 0.93 0.93 0.98 1.05 1.04 1.09 1.17 1.04 0.81 0.79 0.81 0.73 0.73 0.75 0.77 0.67 0.65 0.63 0.64 0.66 0.60 0.58 0.55 0.55 0.54 0.58 0.66 0.73 0.86 1.12 1.44 1.65 1.38 1.19 1.12 0.98 1.01 1.25 1.37
0.67 0.63 0.68 0.84 0.91 0.91 0.98 1.08 0.99 1.01 1.10 1.05 0.93 0.86 0.79 0.78 0.81 0.82 0.78 0.74 0.68 0.68 0.69 0.70 0.69 0.63 0.59 0.59 0.59 0.64 0.69 0.68 0.67 0.85 1.02 1.43 1.58 1.41 1.10 0.98 1.03 1.15 1.30
1.04 0.94 0.77 0.70 0.74 0.81 0.97 1.11 1.08 1.03 1.03 0.99 1.03 0.97 0.93 0.90 0.84 0.78 0.77 0.76 0.75 0.75 0.75 0.73 0.69 0.65 0.63 0.62 0.61 0.65 0.73 0.71 0.73 0.78 0.80 1.24 1.56 1.47 1.12 0.97 0.99 1.23 1.32
1.07 1.04 0.90 0.80 0.78 0.80 0.76 0.93 1.13 1.18 1.12 1.02 1.00 0.99 0.99 0.92 0.83 0.77 0.71 0.72 0.77 0.79 0.83 0.84 0.76 0.74 0.70 0.65 0.63 0.70 0.76 0.67 0.62 0.64 0.76 1.01 1.44 1.51 1.32 0.99 0.86 0.94 1.03
0.89 0.89 0.88 0.89 0.92 0.97 0.97 0.95 1.17 1.26 1.18 0.99 0.89 0.93 0.93 0.79 0.81 0.82 0.71 0.83 0.83 0.88 0.93 0.92 0.87 0.85 0.75 0.66 0.71 0.81 0.69 0.56 0.67 0.66 0.74 0.93 1.27 1.42 1.38 1.10 0.82 0.79 0.85
0.73 0.70 0.68 0.71 0.79 0.91 0.99 1.32 1.53 1.33 1.21 0.95 0.94 0.83 0.89 0.96 1.03 0.86 0.80 0.95 0.98 1.02 1.00 0.99 1.02 0.94 0.77 0.59 0.64 0.70 0.56 0.58 0.65 0.58 0.68 0.93 1.18 1.27 1.24 1.09 0.89 0.79 0.82
0.56 0.51 0.50 0.48 0.50 0.59 0.79 1.14 1.43 1.55 1.52 1.43 1.19 0.96 0.97 0.85 0.74 0.68 0.70 0.80 0.87 0.95 0.91 0.94 0.94 0.80 0.71 0.65 0.59 0.53 0.53 0.57 0.68 0.69 0.82 0.99 1.13 1.21 1.20 1.09 0.95 0.86 0.85
0.52 0.51 0.46 0.45 0.42 0.44 0.53 0.70 0.90 1.04 1.14 1.16 1.01 0.91 0.98 0.87 0.76 0.76 0.76 0.75 0.75 0.83 0.92 0.96 0.91 0.78 0.66 0.60 0.57 0.57 0.59 0.60 0.73 0.92 1.04 0.90 0.99 1.14 1.22 1.15 1.05 0.96 0.93
0.56 0.62 0.58 0.49 0.45 0.44 0.47 0.55 0.63 0.78 0.87 0.90 0.92 0.88 0.91 0.92 0.89 0.86 0.78 0.77 0.71 0.77 0.87 0.94 0.90 0.81 0.75 0.69 0.66 0.70 0.73 0.77 0.80 0.86 0.93 0.88 0.96 1.18 1.34 1.35 1.19 1.03 1.00
0.56 0.62 0.67 0.59 0.55 0.50 0.47 0.51 0.55 0.65 0.73 0.77 0.76 0.76 0.86 0.94 0.94 0.90 0.85 0.86 0.83 0.84 0.96 0.94 0.86 0.89 0.88 0.78 0.67 0.66 0.72 0.79 0.85 0.81 0.85 0.95 0.96 0.99 1.25 1.45 1.46 1.24 1.19
0.56 0.59 0.61 0.63 0.63 0.62 0.60 0.58 0.57 0.64 0.74 0.76 0.73 0.68 0.70 0.78 0.84 0.87 0.87 0.87 0.91 1.00 1.04 1.07 0.90 0.91 0.86 0.77 0.71 0.66 0.64 0.67 0.72 0.77 0.74 0.73 0.81 0.89 1.08 1.39 1.59 1.47 1.37
0.48 0.49 0.54 0.55 0.61 0.68 0.71 0.72 0.73 0.73 0.80 0.77 0.76 0.69 0.64 0.69 0.77 0.90 0.91 0.88 0.91 1.03 1.11 1.15 1.05 1.00 0.92 0.88 0.85 0.77 0.70 0.71 0.69 0.77 0.77 0.69 0.80 0.77 0.90 1.03 1.22 1.36 1.42
0.43 0.43 0.46 0.50 0.52 0.64 0.73 0.76 0.84 0.86 0.87 0.85 0.84 0.74 0.71 0.76 0.84 1.01 1.10 1.11 1.11 1.12 1.11 1.06 1.11 1.09 1.06 1.04 0.97 0.92 0.83 0.75 0.79 0.74 0.77 0.78 0.74 0.78 0.85 0.68 0.73 0.84 1.08
0.34 0.36 0.40 0.45 0.48 0.55 0.70 0.82 0.97 1.09 1.05 1.07 1.01 0.89 0.91 1.05 1.19 1.32 1.32 1.40 1.46 1.34 1.29 1.23 1.23 1.18 1.12 1.14 1.05 0.94 0.86 0.76 0.83 0.87 0.86 0.87 0.82 0.77 0.83 0.72 0.65 0.57 0.69
0.23 0.26 0.32 0.36 0.44 0.53 0.61 0.75 0.96 1.24 1.35 1.44 1.40 1.22 1.16 1.28 1.52 1.72 1.69 1.73 1.76 1.63 1.58 1.64 1.82 1.77 1.50 1.27 1.28 1.11 0.93 0.77 0.87 0.90 0.88 0.91 0.93 1.00 1.05 0.93 0.75 0.68 0.58
0.17 0.18 0.24 0.32 0.42 0.51 0.60 0.77 0.94 1.08 1.08 1.26 1.41 1.39 1.30 1.29 1.44 1.57 1.83 1.92 1.84 1.85 1.97 1.99 2.30 2.43 2.01 1.59 1.57 1.67 1.40 1.19 0.93 0.78 0.83 0.86 0.94 1.14 1.17 0.97 0.85 0.73 0.65
0.12 0.13 0.17 0.24 0.35 0.48 0.64 0.87 1.09 1.27 1.36 1.42 1.35 1.43 1.44 1.37 1.41 1.51 1.66 1.82 1.83 1.89 1.98 2.09 2.41 2.85 2.61 2.08 1.85 2.02 1.72 1.53 1.34 0.97 0.81 0.83 0.94 1.13 1.24 1.16 1.08 0.97 0.81
0.11 0.10 0.14 0.23 0.38 0.59 0.80 1.06 1.31 1.51 1.55 1.44 1.48 1.51 1.39 1.34 1.30 1.37 1.51 1.65 1.77 1.79 1.92 2.02 2.13 2.58 2.89 2.57 2.27 1.94 1.61 1.54 1.62 1.42 1.05 0.95 1.00 1.06 1.14 1.11 1.10 1.18 1.09
0.17 0.18 0.25 0.45 0.70 0.96 1.17 1.43 1.72 1.72 1.61 1.51 1.51 1.48 1.42 1.43 1.40 1.39 1.53 1.60 1.62 1.68 1.78 2.11 2.36 2.60 2.78 2.71 2.61 2.43 2.18 1.88 1.51 1.60 1.54 1.28 1.16 1.09 1.10 1.13 1.15 1.18 1.17
0.47 0.61 0.81 1.08 1.27 1.36 1.49 1.64 1.76 1.73 1.74 1.68 1.50 1.40 1.40 1.44 1.49 1.54 1.59 1.60 1.57 1.60 1.71 1.93 2.21 2.41 2.72 2.89 2.77 2.55 2.39 2.23 1.99 1.84 1.62 1.52 1.47 1.23 1.17 1.17 1.13 1.17 1.24